User: anonymous   Login
Location: Unspecified
(35.6961°N, 0.0000°E)
Time: 11:42:50
(UTC+00:00)
Language:

AO-73 - Orbit

View from above orbital plane
View from above orbital plane
View from above satellite
View from above satellite

Ground track
Ground track

The orbit data is extracted from the following two-line orbital elements,

1 39444U 13066AE  19169.63809458  .00000163  00000-0  26367-4 0  9997
2 39444  97.5602 185.0884 0058844  29.5270 330.9246 14.81932500299924
Epoch (UTC): 18 June 2019 15:18:51
Eccentricity: 0.0058844
inclination: 97.5602°
perigee height: 582 km
apogee height: 664 km
right ascension of ascending node: 185.0884°
argument of perigee: 29.5270°
revolutions per day: 14.81932500
mean anomaly at epoch: 330.9246°
orbit number at epoch: 29992

The dashed part of the orbit path shows where the satellite is in the earth's shadow,  

DLR